Weather observations for the past three days for
Peoria - General Downing-Peoria International Airport
Metric (Imperial)
Date Time (cdt) Wind (kph) Vis. (km) Weather Sky Cond. Temperature (ºC) Relative Humidity Wind Chill (°C) Heat Index (°C) Pressure Precipitation (cm)
Air Dwpt 6 hour altimeter (cm) sea level (mb) 1 hr 3 hr 6 hr
Max. Min.
16 07:54 S 19 16.09 Mostly Cloudy BKN065 25 16.7 60% 26 76 1012.4
16 06:54 S 17 16.09 Fair CLR 23.9 15.6 23.9 23.3 60% 25 76 1012.5
16 05:54 S 20 16.09 Mostly Cloudy BKN055 BKN070 BKN085 23.9 15 58% 25 75.97 1012.2
16 04:54 S 13 16.09 Mostly Cloudy BKN050 23.9 15 58% 25 75.97 1012.3
16 03:54 S 19 G 31 16.09 Fair CLR 23.9 14.4 55% 25 75.97 1012.1
16 02:54 SE 17 16.09 Fair CLR 23.9 14.4 55% 25 75.97 1012.3
16 01:54 SE 15 16.09 Fair CLR 23.9 13.9 54% 25 76.05 1013.1
16 00:54 SE 15 16.09 Fair CLR 23.9 13.3 28.9 23.9 52% 25 76.02 1012.9
15 23:54 SE 9 16.09 Fair CLR 24.4 13.9 52% 26 76.07 1013.5
15 22:54 SE 9 16.09 Fair CLR 25 13.9 50% 26 76.07 1013.6
15 21:54 SE 11 16.09 Fair CLR 25.6 15 52% 26 76.05 1013.5
15 20:54 SE 7 16.09 Fair CLR 26.1 13.9 47% 27 76.02 1012.9
15 19:54 S 11 16.09 Fair CLR 27.8 13.3 41% 28 76.05 1013.3
15 18:54 S 11 16.09 Fair CLR 28.9 13.9 31.1 28.3 40% 28 76.07 1013.6
15 17:54 SE 7 16.09 Fair CLR 28.9 12.8 37% 28 76.1 1014.2
15 16:54 SE 13 16.09 Fair CLR 29.4 12.8 36% 29 76.15 1014.8
15 15:54 SW 15 16.09 Fair CLR 31.1 12.8 33% 30 76.25 1016.0
15 14:54 S 13 16.09 Fair CLR 30 13.3 36% 29 76.28 1016.4
15 13:54 S 15 16.09 Fair CLR 29.4 13.3 37% 29 76.33 1016.9
15 12:54 S 17 16.09 Fair CLR 30 15 30 18.9 40% 30 76.33 1017.1
15 11:54 Vrbl 7 16.09 Fair CLR 28.3 15 44% 28 76.38 1017.9
15 10:54 Vrbl 6 16.09 Fair CLR 26.7 14.4 47% 27 76.4 1018.1
15 09:54 Vrbl 7 16.09 Fair CLR 24.4 15 56% 26 76.43 1018.3
15 08:54 E 9 16.09 Fair CLR 21.7 13.9 61% 76.45 1018.7
15 07:54 E 6 16.09 Fair CLR 20.6 13.3 63% 76.45 1018.7
15 06:54 E 9 16.09 Fair CLR 18.9 12.8 20.6 16.1 68% 76.4 1018.1
15 05:54 NE 11 16.09 Fair CLR 16.7 11.7 73% 76.4 1018.0
15 04:54 E 15 16.09 Fair CLR 17.2 11.7 70% 76.33 1017.2
15 03:54 E 17 16.09 Fair CLR 17.8 11.7 68% 76.35 1017.4
15 02:54 E 15 16.09 Fair CLR 18.3 12.8 70% 76.38 1017.7
15 01:54 E 15 16.09 Fair CLR 18.9 13.3 70% 76.35 1017.3
15 00:54 E 19 16.09 Fair CLR 20.6 13.9 30 20.6 66% 76.33 1016.9
14 23:54 NE 19 16.09 Fair CLR 21.1 14.4 66% 76.35 1017.2
14 22:54 Calm 16.09 Fair CLR 21.1 13.9 64% 76.28 1016.6
14 21:54 N 6 16.09 Fair CLR 22.8 12.2 51% 76.28 1016.3
14 20:54 N 6 16.09 Fair CLR 25 12.2 45% 26 76.23 1015.8
14 19:54 NW 6 16.09 Fair CLR 26.7 11.7 39% 27 76.2 1015.4
14 18:54 NW 7 16.09 Fair CLR 30 11.1 31.7 30 31% 29 76.2 1015.3
14 17:54 N 7 16.09 Fair CLR 30.6 10 28% 29 76.2 1015.3
14 16:54 NW 13 16.09 Fair CLR 31.1 9.4 26% 30 76.2 1015.3
14 15:54 N 15 16.09 Fair CLR 31.1 8.9 25% 29 76.2 1015.4
14 14:54 Vrbl 9 16.09 Fair CLR 30.6 12.8 34% 30 76.2 1015.2
14 13:54 N 11 16.09 Fair CLR 30.6 11.1 30% 29 76.23 1015.6
14 12:54 NW 13 16.09 Fair CLR 30 12.8 30.6 21.1 35% 29 76.23 1015.7
14 11:54 N 13 16.09 Fair CLR 30 11.1 31% 29 76.23 1015.7
14 10:54 Vrbl 6 16.09 Fair CLR 28.9 14.4 41% 29 76.23 1015.5
14 09:54 NE 9 16.09 Fair CLR 26.7 15.6 51% 27 76.17 1015.2
14 08:54 N 9 16.09 Fair CLR 24.4 17.2 64% 25 76.2 1015.4
14 07:54 N 9 16.09 Fair CLR 22.8 17.8 74% 76.17 1014.9
14 06:54 N 6 16.09 Fair CLR 21.1 18.3 22.2 19.4 84% 76.12 1014.1
14 05:54 N 7 16.09 Fair CLR 19.4 18.3 93% 76.07 1013.7
14 04:54 N 6 16.09 Fair CLR 20.6 18.9 90% 76.07 1013.6
14 03:54 Calm 16.09 Fair CLR 20.6 20 96% 76.05 1013.2
14 02:54 Calm 16.09 Fair CLR 20.6 20.6 100% 76.02 1012.8
14 01:54 Calm 16.09 Fair CLR 21.7 20.6 94% 76.02 1012.8
14 00:54 Calm 16.09 Mostly Cloudy BKN090 22.2 21.7 30.6 21.7 97% 75.95 1012.0 0.58
13 23:54 Calm 16.09 Thunderstorm in Vicinity FEW055 BKN100 22.8 21.7 94% 75.95 1011.8
13 22:54 NE 6 16.09 A Few Clouds FEW060 22.2 21.1 94% 75.92 1011.7
13 21:54 Calm 16.09 Partly Cloudy SCT110 22.2 21.1 94% 75.87 1011.1 0.05 0.58
13 20:54 Vrbl 9 14.48 Light Rain FEW060 SCT075 OVC110 22.2 20.6 91% 75.82 1010.4 0.13
13 19:54 SW 39 G 54 12.87 Thunderstorm Rain and Breezy FEW045 BKN090 OVC110 24.4 21.1 82% 25 75.59 1007.2 0.41
13 18:54 S 9 16.09 A Few Clouds FEW060 30.6 22.2 33.9 30.6 61% 34 75.69 1008.4
13 17:54 S 6 16.09 A Few Clouds FEW070 31.1 21.7 57% 34 75.74 1009.1
13 16:54 W 11 16.09 A Few Clouds FEW045 32.8 21.1 50% 36 75.77 1009.6
13 15:54 Vrbl 11 16.09 Mostly Cloudy FEW044 BKN050 33.9 21.7 49% 38 75.82 1010.2
13 14:54 SW 9 16.09 Mostly Cloudy BKN049 31.7 21.1 53% 35 75.84 1010.7
13 13:54 SW 17 16.09 Fair CLR 31.7 21.1 53% 35 75.84 1010.5
13 12:54 SW 20 G 33 16.09 Fair CLR 31.7 20 31.7 22.2 50% 34 75.84 1010.5
13 11:54 SW 22 16.09 Fair CLR 30.6 20 53% 33 75.84 1010.6
13 10:54 SW 24 G 35 16.09 Fair CLR 29.4 20 57% 31 75.9 1011.1
13 09:54 SW 26 G 41 16.09 Fair CLR 27.2 19.4 62% 29 75.87 1010.9
13 08:54 S 24 16.09 Mostly Cloudy BKN080 25.6 18.9 67% 27 75.87 1011.0
Date Time (cdt) Wind (kph) Vis. (km) Weather Sky Cond. Air Dwpt Max. Min. Relative Humidity Wind Chill (°C) Heat Index (°C) altimeter (cm) sea level (mb) 1 hr 3 hr 6 hr
6 hour
Temperature (ºC) Pressure Precipitation (cm)